GW5503 Weather Reports


Display with metric or nautical units.
time (UTC)temp
F
wind
direction
speed
MPH
gust
MPH
rain 1hr
in
rain 24hr
in
rain mn
in
humidity
%
barometer
mb
20260504023930 60 183 1.0 4.0 0.00 0.05 0.05 65 984.1
20260504023430 60 168 2.0 4.0 0.00 0.05 0.05 64 984.1
20260504022930 60 186 1.0 4.0 0.00 0.05 0.05 64 984.1
20260504022430 60 252 1.0 4.0 0.00 0.05 0.05 64 984.1
20260504021931 60 0 1.0 6.0 0.00 0.05 0.05 63 984.0
20260504021428 61 275 1.0 6.0 0.00 0.05 0.05 63 984.0
20260504020925 61 191 1.0 5.0 0.00 0.05 0.05 62 984.0
20260504020425 61 175 2.0 6.0 0.00 0.05 0.05 62 984.0
20260504020146 62 168 2.0 6.0 0.00 0.05 0.05 61 983.9
20260504015422 62 185 2.0 8.0 0.00 0.05 0.05 61 983.8
20260504015140 62 177 2.0 8.0 0.00 0.05 0.05 60 983.8
20260504014422 62 182 2.0 6.0 0.00 0.05 0.05 60 983.8
20260504013922 62 205 2.0 6.0 0.00 0.05 0.05 59 983.7
20260504013424 63 194 2.0 6.0 0.00 0.05 0.05 59 983.8
20260504012922 63 157 2.0 6.0 0.00 0.05 0.05 58 983.8
20260504012642 63 194 2.0 6.0 0.00 0.05 0.05 58 983.7
20260504011920 63 199 2.0 6.0 0.00 0.05 0.05 58 983.7
20260504011420 63 216 2.0 6.0 0.00 0.05 0.05 57 983.7
20260504011145 63 290 2.0 6.0 0.00 0.05 0.05 57 983.7
20260504010420 64 201 2.0 6.0 0.00 0.05 0.05 57 983.7
20260504005919 64 230 2.0 6.0 0.00 0.05 0.05 57 983.7
20260504005420 64 244 2.0 6.0 0.00 0.05 0.05 56 983.7
20260504004920 64 205 2.0 6.0 0.00 0.05 0.05 55 983.6
20260504004420 65 279 2.0 6.0 0.00 0.05 0.05 55 983.5
20260504003922 65 196 2.0 6.0 0.00 0.05 0.05 54 983.6
20260504003644 65 201 2.0 6.0 0.00 0.05 0.05 54 983.6
20260504002921 65 177 3.0 9.0 0.00 0.05 0.05 54 983.6
20260504002421 66 174 4.0 9.0 0.00 0.05 0.05 52 983.6
20260504001918 66 228 4.0 9.0 0.00 0.05 0.05 52 983.6
20260504001414 66 251 4.0 9.0 0.00 0.05 0.05 51 983.6
20260504000915 66 184 4.0 9.0 0.00 0.05 0.05 51 983.6
20260504000412 66 174 4.0 9.0 0.00 0.05 0.05 51 983.7
20260503235912 67 213 4.0 8.0 0.00 0.05 0.05 50 983.7
20260503235412 67 171 4.0 9.0 0.00 0.05 0.05 50 983.8
20260503234912 67 257 4.0 10.0 0.00 0.05 0.05 51 983.8
20260503234412 67 222 4.0 11.0 0.00 0.05 0.05 49 983.7
20260503234137 67 241 4.0 11.0 0.00 0.05 0.05 50 983.8
20260503233413 67 113 4.0 11.0 0.00 0.05 0.05 49 983.7
20260503232912 67 38 4.0 8.0 0.00 0.05 0.05 50 983.7
20260503232635 67 172 4.0 8.0 0.00 0.05 0.05 48 983.7
20260503232355 67 351 4.0 10.0 0.00 0.05 0.05 48 983.8
20260503231407 67 162 5.0 10.0 0.00 0.05 0.05 48 983.8
20260503230908 67 185 4.0 10.0 0.00 0.05 0.05 48 983.8
20260503230626 67 243 4.0 10.0 0.00 0.05 0.05 48 983.8
20260503225906 67 208 4.0 13.0 0.00 0.05 0.05 48 983.9
20260503225405 67 194 5.0 13.0 0.00 0.05 0.05 48 983.9
20260503224904 67 208 5.0 12.0 0.00 0.05 0.05 47 983.7
20260503224629 67 190 4.0 10.0 0.00 0.05 0.05 47 983.8
20260503223906 67 171 4.0 10.0 0.00 0.05 0.05 47 983.9
20260503223405 67 190 4.0 11.0 0.00 0.05 0.05 48 984.1
20260503222904 67 262 4.0 11.0 0.00 0.05 0.05 46 984.1
20260503222405 67 181 4.0 11.0 0.00 0.05 0.05 47 984.0
20260503221903 67 214 5.0 13.0 0.00 0.05 0.05 46 984.2
20260503221402 67 209 5.0 13.0 0.00 0.05 0.05 46 984.1
20260503220901 67 183 4.0 9.0 0.00 0.05 0.05 47 984.2
20260503220628 67 172 4.0 8.0 0.00 0.05 0.05 47 984.3
20260503215902 67 208 4.0 8.0 0.00 0.05 0.05 47 984.2
20260503215359 67 240 4.0 9.0 0.00 0.05 0.05 46 984.2
20260503214900 67 49 4.0 10.0 0.00 0.05 0.05 47 984.2
20260503214400 67 1 6.0 12.0 0.00 0.05 0.05 46 984.3
20260503213900 67 223 5.0 12.0 0.00 0.05 0.05 46 984.2
20260503213401 67 186 5.0 12.0 0.00 0.05 0.05 46 984.4
20260503212900 66 192 5.0 13.0 0.00 0.05 0.05 46 984.4
20260503212400 66 236 5.0 13.0 0.00 0.05 0.05 46 984.4
20260503212116 66 293 5.0 11.0 0.00 0.05 0.05 46 984.4
20260503211400 66 168 5.0 11.0 0.00 0.05 0.05 46 984.6
20260503211125 66 190 6.0 16.0 0.00 0.05 0.05 46 984.7
20260503210400 66 177 6.0 16.0 0.00 0.05 0.05 46 984.8
20260503205859 66 184 6.0 13.0 0.00 0.05 0.05 46 984.9
20260503205400 65 194 5.0 13.0 0.00 0.05 0.05 47 985.0
20260503204900 65 278 6.0 12.0 0.00 0.05 0.05 46 985.1
20260503204400 64 260 5.0 12.0 0.00 0.05 0.05 47 985.2
20260503203900 64 197 5.0 13.0 0.00 0.05 0.05 48 985.4
20260503203358 65 143 5.0 13.0 0.00 0.05 0.05 47 985.6
20260503202858 65 181 6.0 15.0 0.00 0.05 0.05 46 985.6
20260503202355 66 211 6.0 15.0 0.00 0.05 0.05 45 985.7
20260503201855 66 261 6.0 19.0 0.00 0.05 0.05 45 985.8
20260503201615 66 202 6.0 19.0 0.00 0.05 0.05 44 985.8
20260503200852 66 195 6.0 12.0 0.00 0.05 0.05 44 985.9
20260503200353 66 162 6.0 13.0 0.00 0.05 0.05 43 985.9
20260503195852 66 16 6.0 16.0 0.00 0.05 0.05 42 985.8
20260503195352 65 197 7.0 16.0 0.00 0.05 0.05 42 985.7
20260503195115 65 184 7.0 13.0 0.00 0.05 0.05 43 986.0
20260503194353 64 244 6.0 16.0 0.00 0.05 0.05 43 985.9
20260503194116 64 193 6.0 16.0 0.00 0.05 0.05 44 986.2
20260503193349 64 217 6.0 16.0 0.00 0.05 0.05 44 986.3
20260503192849 64 212 6.0 13.0 0.00 0.05 0.05 44 986.4
20260503192346 64 189 6.0 12.0 0.00 0.05 0.05 43 986.5
20260503192100 65 182 6.0 12.0 0.00 0.05 0.05 44 986.4
20260503191344 65 166 6.0 11.0 0.00 0.05 0.05 44 986.4
20260503190844 64 233 6.0 12.0 0.00 0.05 0.05 45 986.3
20260503190343 64 176 7.0 18.0 0.00 0.05 0.05 46 986.3
20260503190110 64 199 7.0 18.0 0.00 0.05 0.05 45 986.4
20260503185345 64 183 7.0 16.0 0.00 0.05 0.05 47 986.6
20260503184845 63 191 7.0 12.0 0.00 0.05 0.05 49 986.6
20260503184604 62 188 7.0 13.0 0.00 0.05 0.05 50 986.8
20260503183845 62 210 7.0 13.0 0.00 0.05 0.05 51 986.9
20260503183603 62 162 6.0 13.0 0.00 0.05 0.05 52 987.1
20260503182843 61 212 6.0 12.0 0.00 0.05 0.05 55 987.2
20260503182338 61 190 6.0 13.0 0.00 0.05 0.05 56 987.3
20260503181839 60 183 6.0 13.0 0.00 0.05 0.05 54 987.3
20260503181338 60 182 5.0 12.0 0.00 0.05 0.05 59 987.5
20260503180839 59 200 5.0 11.0 0.00 0.05 0.05 59 987.8
20260503180339 58 219 4.0 10.0 0.00 0.05 0.05 60 987.9
20260503175839 58 167 5.0 11.0 0.00 0.05 0.05 61 987.9
20260503175339 57 208 4.0 11.0 0.00 0.05 0.05 63 987.9
20260503174839 56 195 4.0 9.0 0.00 0.05 0.05 65 988.4
20260503174339 55 177 3.0 8.0 0.01 0.05 0.05 67 988.7
20260503173840 55 169 3.0 9.0 0.01 0.05 0.05 67 989.0
20260503173339 55 192 4.0 10.0 0.01 0.05 0.05 67 989.2
20260503172839 55 184 4.0 10.0 0.01 0.05 0.05 67 989.3
20260503172337 54 217 3.0 8.0 0.01 0.05 0.05 69 989.3
20260503171838 54 183 3.0 8.0 0.01 0.05 0.05 70 989.6
20260503171337 53 181 2.0 7.0 0.02 0.05 0.05 72 989.8
20260503171323 53 228 2.0 6.0 0.02 0.05 0.05 73 990.0
20260503170334 53 179 2.0 6.0 0.02 0.04 0.04 77 990.4
20260503150825 51 244 2.0 8.0 0.02 0.02 0.02 76 992.1
20260503150323 52 215 3.0 8.0 0.01 0.01 0.01 72 992.1
20260503131319 51 163 3.0 9.0 0.00 0.00 0.00 65 991.9
20260503130820 51 224 3.0 8.0 0.00 0.00 0.00 65 992.0
20260503130321 51 230 4.0 9.0 0.00 0.00 0.00 66 992.0
20260503110813 47 194 4.0 9.0 0.00 0.00 0.00 65 991.6
20260503110313 47 230 4.0 11.0 0.00 0.00 0.00 64 991.5
20260503090304 45 0 2.0 6.0 0.00 0.00 0.00 68 992.2
20260503081523 45 151 1.0 4.0 0.00 0.00 0.00 69 992.4
20260503080758 45 207 1.0 6.0 0.00 0.00 0.00 69 992.4
20260503080255 45 239 2.0 6.0 0.00 0.00 0.00 69 992.4
20260503072752 46 160 2.0 6.0 0.00 0.00 0.00 66 992.3
20260503072253 46 215 2.0 6.0 0.00 0.00 0.00 66 992.4
20260503071752 46 176 2.0 5.0 0.00 0.00 0.00 66 992.4
20260503071253 46 196 1.0 5.0 0.00 0.00 0.00 66 992.4
20260503070753 46 0 1.0 5.0 0.00 0.00 0.00 65 992.5
20260503070252 46 199 2.0 5.0 0.00 0.00 0.00 65 992.5
20260503060245 46 183 1.0 4.0 0.00 0.00 0.00 65 993.1
20260503054743 46 0 2.0 5.0 0.00 0.00 0.00 62 993.2
20260503054716 46 0 1.0 6.0 0.00 0.00 0.00 62 993.2
20260503053744 46 225 1.0 6.0 0.00 0.00 0.00 62 993.3
20260503053243 46 219 2.0 6.0 0.00 0.00 0.00 62 993.3
20260503052743 46 188 2.0 5.0 0.00 0.00 0.00 62 993.3
20260503052244 46 193 2.0 4.0 0.00 0.00 0.00 62 993.4
20260503051744 46 190 1.0 4.0 0.00 0.00 0.00 62 993.4
20260503051244 46 250 1.0 4.0 0.00 0.00 0.00 62 993.5
20260503050744 47 198 1.0 6.0 0.00 0.00 0.00 61 993.4
20260503050243 47 184 1.0 6.0 0.00 0.00 0.00 61 993.5
20260503045743 47 176 1.0 4.0 0.00 0.00 0.00 61 993.5
20260503045517 47 0 1.0 4.0 0.00 0.00 0.00 59 993.5
20260503044741 47 208 2.0 5.0 0.00 0.00 0.00 60 993.5
20260503044242 47 159 1.0 5.0 0.00 0.00 0.00 60 993.5
20260503043742 47 0 1.0 3.0 0.00 0.00 0.00 61 993.6
20260503043241 47 179 1.0 3.0 0.00 0.00 0.00 61 993.6
20260503042740 47 150 0.0 4.0 0.00 0.00 0.00 61 993.6
20260503042558 47 178 0.0 4.0 0.00 0.00 0.00 61 993.6
20260503041243 47 275 0.0 3.0 0.00 0.00 0.00 63 993.7
20260503040738 47 0 0.0 4.0 0.00 0.00 0.00 63 993.7
20260503040238 47 213 1.0 4.0 0.00 0.00 0.00 62 993.7
20260503035740 47 199 1.0 4.0 0.00 0.00 0.00 62 993.7
20260503035239 47 0 1.0 4.0 0.00 0.00 0.00 62 993.7
20260503034736 48 0 0.0 3.0 0.00 0.00 0.00 63 993.7
20260503034236 48 173 0.0 3.0 0.00 0.00 0.00 62 993.7
20260503033736 48 0 0.0 3.0 0.00 0.00 0.00 61 993.7
20260503033235 48 0 0.0 3.0 0.00 0.00 0.00 62 993.8
20260503032736 48 0 0.0 3.0 0.00 0.00 0.00 63 993.7
20260503032236 48 0 0.0 3.0 0.00 0.00 0.00 61 993.8
20260503031737 48 160 0.0 3.0 0.00 0.00 0.00 61 993.8
20260503031236 48 0 0.0 2.0 0.00 0.00 0.00 62 993.8
20260503030737 48 0 0.0 2.0 0.00 0.00 0.00 62 993.9
20260503030236 48 0 0.0 2.0 0.00 0.00 0.00 61 993.9
20260503025736 48 0 0.0 4.0 0.00 0.00 0.00 62 993.9
20260503025234 48 271 0.0 4.0 0.00 0.00 0.00 62 993.9
20260503024734 48 0 0.0 2.0 0.00 0.00 0.00 63 993.9